Lid_Strength_Index
-1 -2 -1 -2 -2 -2 -2 -2 -2 -2 -1 -1 -1 -1 -1 -1 -1 -2 -2 1 1 -1 -2 -2 -2 -3 -2 -2 -2 -2 -2 -2 -2 -2 -2 -2 -2 -2 -2 -2 -2 -2 -2
-1 -1 -1 -2 -2 -2 -2 -2 -1 -1 -1 -1 -1 -1 -1 -1 -1 -1 -1 -1 1 1 -1 -1 -0 -1 -1 -1 -1 -1 -1 -1 -1 -1 -1 -1 -1 -1 -2 -2 -2 -2 -2
-1 -1 -1 -1 -2 -2 -2 -2 -2 -1 -1 -1 -1 -1 -1 -1 -1 -1 -0 -0 -0 1 0 1 1 1 1 -0 -0 -0 -0 -0 -0 -0 -0 0 -0 -0 -1 -1 -1 -1 -1
-1 -1 -1 -1 -2 -2 -2 -1 -1 -1 -1 -0 -0 -1 -1 -1 -1 -0 0 -0 0 1 1 3 3 2 2 1 1 0 0 0 1 1 1 2 2 1 1 1 1 0 -0
-0 -1 -1 -1 -1 -1 -1 -1 -1 -0 0 -0 -0 -0 -1 -1 -0 1 0 1 2 2 5 4 3 3 3 2 1 1 2 2 2 3 3 3 3 2 2 2 1 1 0
-0 -0 -0 -0 -1 0 0 -0 -0 -0 -0 0 0 0 -0 -1 -0 1 1 2 3 5 5 5 5 5 4 3 3 3 3 3 3 3 3 3 3 3 2 2 1 1 1
-0 -0 -1 -1 -0 0 -0 1 0 0 0 -0 1 1 -0 0 0 1 2 4 3 7 6 6 6 5 4 4 5 5 4 4 3 4 4 4 3 3 2 2 1 1 1
-0 -0 -0 -1 -1 -0 1 1 1 1 1 -0 2 2 3 2 1 2 1 4 6 7 7 7 6 5 5 7 7 7 5 5 4 4 4 4 3 3 2 2 2 2 2
-0 -0 -0 -0 -1 -0 0 0 1 1 2 0 0 2 4 5 5 2 4 5 8 8 7 7 6 7 7 8 8 8 7 6 5 5 4 4 4 3 3 3 3 3 2
-0 -0 -0 -0 -1 -0 -0 0 0 0 1 2 1 2 2 3 6 7 6 6 8 9 8 8 6 7 8 9 9 9 9 8 7 6 6 5 5 4 4 3 3 3 3
-1 -1 -0 -0 -0 0 1 1 1 1 0 1 2 2 3 4 4 7 10 10 9 9 8 7 7 8 9 9 9 10 9 9 8 8 7 6 6 5 5 4 4 3 3
0 -0 1 1 1 2 2 3 2 2 2 2 4 5 7 7 8 9 10 11 11 10 8 8 9 9 10 10 10 11 10 9 8 8 8 7 7 5 4 4 3 2 3
3 2 2 4 4 5 5 4 4 4 5 6 7 8 8 9 9 9 10 11 11 10 9 8 9 10 10 10 10 11 10 9 9 8 8 8 6 5 5 4 4 3 3
2 3 4 5 6 7 7 6 6 7 7 8 9 9 9 9 9 10 11 11 12 11 10 11 9 10 10 10 10 10 10 10 9 9 8 7 6 6 6 5 5 4 3
5 5 6 7 8 8 8 7 8 9 9 9 9 9 9 10 10 10 10 10 12 13 12 11 12 10 10 10 10 10 10 11 10 9 8 7 7 7 6 6 5 4 3
7 8 9 9 9 9 9 9 9 10 10 10 10 10 10 11 11 11 11 11 11 12 13 11 11 11 10 11 10 10 10 10 10 9 7 7 7 7 7 6 6 5 4
9 10 10 10 11 10 10 10 10 11 11 11 11 10 11 12 12 12 12 12 12 12 13 12 11 11 11 11 10 10 10 10 10 10 9 7 7 7 7 7 6 5 4
11 11 12 12 12 11 11 11 12 11 11 11 11 12 13 13 12 12 12 12 12 12 13 13 12 12 12 11 10 11 11 11 11 11 9 9 8 8 7 7 6 5 4
12 13 13 12 12 11 11 11 12 12 11 11 12 13 13 12 13 13 12 13 13 12 12 13 13 12 11 11 11 11 11 11 10 11 10 10 9 8 8 7 6 5 4
12 14 13 13 12 11 12 12 12 12 12 11 12 13 13 13 13 13 13 13 13 12 12 12 13 12 12 11 12 13 13 11 11 11 11 11 10 9 8 7 6 5 4
13 14 14 13 12 12 12 12 12 12 12 12 13 13 13 14 14 13 13 13 13 13 13 13 13 13 13 13 14 14 14 13 11 11 11 10 10 10 9 6 6 5 5
15 14 14 14 13 13 12 12 12 12 13 14 14 13 14 15 14 14 13 13 13 13 13 13 13 14 14 13 13 14 14 14 14 10 11 10 10 9 9 6 5 4 5
15 15 14 13 13 12 12 12 12 13 14 14 14 14 14 14 15 13 13 13 13 12 12 12 13 13 13 12 13 14 14 14 14 11 11 11 9 9 8 7 6 5 5
16 16 15 13 13 12 11 11 13 14 14 14 14 14 14 15 14 14 13 13 13 13 12 12 12 12 12 11 12 13 13 14 13 11 10 12 8 8 8 7 8 7 6
17 15 16 14 13 12 11 12 14 14 15 15 15 15 15 15 14 14 13 14 13 13 12 12 11 10 10 12 12 13 14 15 13 10 10 10 9 9 7 7 8 9 8
15 17 15 14 14 13 12 13 14 14 15 15 15 16 16 15 14 13 13 13 14 13 13 12 12 11 11 12 13 13 13 14 13 11 10 11 9 9 9 8 9 10 10